Location: *
(43.9900°N, 3.4811°E)
Time: 14:38:23
(UTC+00:00)

Spot 2 Rocket - Pass Details

Date: 25 August 2019
Orbit: 756 x 773 km, 98.6° (Epoch: 17 September)

Event Time Altitude Azimuth Distance (km) Brightness Sun altitude
Exits shadow 20:13:43 27° 143° (SE) 1,440 4.4 -16.9°
Maximum altitude 20:16:24 62° 72° (ENE) 866 3.6 -17.3°
Drops below altitude 10° 20:21:25 10° 353° (N) 2,310 6.6 -18.1°
Sets 20:23:45 0° 350° (N) 3,238 7.5 -18.4°
